User: anonymous   Login
Location: Unspecified
(0.0000°N, 0.0000°E)
Time: 07:24:22
(UTC+00:00)
Language:

ZACube-1 - Orbit

View from above orbital plane
View from above orbital plane
View from above satellite
View from above satellite

Ground track
Ground track

The orbit data is extracted from the following two-line orbital elements,

1 39417U 13066B   19167.94855492 +.00000147 +00000-0 +24748-4 0  9991
2 39417 097.5621 181.5484 0060015 040.9606 319.6093 14.81113674300789
Epoch (UTC): 16 June 2019 22:45:55
Eccentricity: 0.0060015
inclination: 97.5621°
perigee height: 584 km
apogee height: 668 km
right ascension of ascending node: 181.5484°
argument of perigee: 40.9606°
revolutions per day: 14.81113674
mean anomaly at epoch: 319.6093°
orbit number at epoch: 30078

The dashed part of the orbit path shows where the satellite is in the earth's shadow,  

DLR